Time,TemperatureF,DewpointF,PressureIn,WindDirection,WindDirectionDegrees,WindSpeedMPH,WindSpeedGustMPH,Humidity,HourlyPrecipIn,Conditions,Clouds,dailyrainin,SolarRadiationWatts/m^2,SoftwareType,DateUTC
2013-04-09 00:02:00,71.0,27.0,29.50,SW,231,21.0,31.0,19,-99.99,,,-99.99,0.000000,,2013-04-09 06:02:00,
2013-04-09 00:12:00,71.0,24.0,29.50,SW,222,25.0,39.0,17,-99.99,,,-99.99,0.000000,,2013-04-09 06:12:00,
2013-04-09 00:22:00,71.0,24.0,29.50,SW,222,25.0,39.0,17,-99.99,,,-99.99,0.000000,,2013-04-09 06:22:00,
2013-04-09 00:32:00,71.0,23.0,29.50,SW,217,21.0,34.0,16,-99.99,,,-99.99,0.000000,,2013-04-09 06:32:00,
2013-04-09 00:42:00,70.0,21.0,29.49,SW,219,24.0,37.0,15,-99.99,,,-99.99,0.000000,,2013-04-09 06:42:00,
2013-04-09 00:52:00,70.0,21.0,29.49,SW,219,24.0,37.0,15,-99.99,,,-99.99,0.000000,,2013-04-09 06:52:00,
2013-04-09 01:02:00,70.0,21.0,29.49,SW,219,24.0,37.0,15,-99.99,,,-99.99,0.000000,,2013-04-09 07:02:00,
2013-04-09 01:13:00,70.0,22.0,29.49,SW,227,24.0,37.0,15,-99.99,,,-99.99,0.000000,,2013-04-09 07:13:00,
2013-04-09 01:22:00,70.0,22.0,29.49,SW,227,24.0,37.0,15,-99.99,,,-99.99,0.000000,,2013-04-09 07:22:00,
2013-04-09 01:32:00,70.0,22.0,29.49,SW,231,20.0,32.0,16,-99.99,,,-99.99,0.000000,,2013-04-09 07:32:00,
2013-04-09 01:42:00,70.0,22.0,29.49,SW,231,20.0,32.0,16,-99.99,,,-99.99,0.000000,,2013-04-09 07:42:00,
2013-04-09 01:52:00,70.0,22.0,29.49,SW,231,20.0,32.0,16,-99.99,,,-99.99,0.000000,,2013-04-09 07:52:00,
2013-04-09 02:03:00,69.0,24.0,29.50,SW,234,17.0,27.0,18,-99.99,,,-99.99,0.000000,,2013-04-09 08:03:00,
2013-04-09 02:12:00,68.0,24.0,29.50,SW,232,14.0,23.0,18,-99.99,,,-99.99,0.000000,,2013-04-09 08:12:00,
2013-04-09 02:22:00,68.0,24.0,29.50,SW,232,14.0,23.0,18,-99.99,,,-99.99,0.000000,,2013-04-09 08:22:00,
2013-04-09 02:32:00,66.0,24.0,29.50,SW,236,11.0,16.0,20,-99.99,,,-99.99,0.000000,,2013-04-09 08:32:00,
2013-04-09 02:42:00,65.0,27.0,29.50,WSW,242,11.0,18.0,23,-99.99,,,-99.99,0.000000,,2013-04-09 08:42:00,
2013-04-09 02:52:00,65.0,27.0,29.50,WSW,242,11.0,18.0,23,-99.99,,,-99.99,0.000000,,2013-04-09 08:52:00,
2013-04-09 03:02:00,64.0,30.0,29.50,WSW,245,12.0,17.0,27,-99.99,,,-99.99,0.000000,,2013-04-09 09:02:00,
2013-04-09 03:12:00,63.0,30.0,29.50,WSW,239,10.0,16.0,27,-99.99,,,-99.99,0.000000,,2013-04-09 09:12:00,
2013-04-09 03:22:00,63.0,30.0,29.50,WSW,239,10.0,16.0,27,-99.99,,,-99.99,0.000000,,2013-04-09 09:22:00,
2013-04-09 03:33:00,64.0,29.0,29.50,SW,234,11.0,16.0,27,-99.99,,,-99.99,0.000000,,2013-04-09 09:33:00,
2013-04-09 03:43:00,63.0,30.0,29.50,WSW,240,12.0,19.0,27,-99.99,,,-99.99,0.000000,,2013-04-09 09:43:00,
2013-04-09 03:53:00,63.0,30.0,29.50,WSW,240,12.0,19.0,27,-99.99,,,-99.99,0.000000,,2013-04-09 09:53:00,
2013-04-09 04:03:00,64.0,31.0,29.50,WSW,245,17.0,28.0,28,-99.99,,,-99.99,0.000000,,2013-04-09 10:03:00,
2013-04-09 04:13:00,64.0,32.0,29.50,WSW,249,19.0,28.0,29,-99.99,,,-99.99,0.000000,,2013-04-09 10:13:00,
2013-04-09 04:23:00,64.0,32.0,29.50,WSW,249,19.0,28.0,29,-99.99,,,-99.99,0.000000,,2013-04-09 10:23:00,
2013-04-09 04:33:00,63.0,31.0,29.51,WSW,248,19.0,37.0,29,-99.99,,,-99.99,0.000000,,2013-04-09 10:33:00,
2013-04-09 04:43:00,63.0,31.0,29.51,WSW,248,19.0,37.0,29,-99.99,,,-99.99,0.000000,,2013-04-09 10:43:00,
2013-04-09 04:53:00,63.0,31.0,29.51,WSW,248,19.0,37.0,29,-99.99,,,-99.99,0.000000,,2013-04-09 10:53:00,
2013-04-09 05:02:00,63.0,27.0,29.52,WSW,248,30.0,54.0,25,-99.99,,,-99.99,0.000000,,2013-04-09 11:02:00,
2013-04-09 05:12:00,63.0,25.0,29.52,SW,233,27.0,48.0,23,-99.99,,,-99.99,0.000000,,2013-04-09 11:12:00,
2013-04-09 05:22:00,63.0,25.0,29.52,SW,233,27.0,48.0,23,-99.99,,,-99.99,0.000000,,2013-04-09 11:22:00,
2013-04-09 05:32:00,63.0,24.0,29.52,WSW,241,27.0,50.0,22,-99.99,,,-99.99,0.000000,,2013-04-09 11:32:00,
2013-04-09 05:42:00,62.0,25.0,29.53,WSW,245,26.0,44.0,23,-99.99,,,-99.99,0.000000,,2013-04-09 11:42:00,
2013-04-09 05:52:00,62.0,25.0,29.53,WSW,245,26.0,44.0,23,-99.99,,,-99.99,0.000000,,2013-04-09 11:52:00,
2013-04-09 06:02:00,61.0,27.0,29.54,WSW,250,23.0,43.0,26,-99.99,,,-99.99,0.000000,,2013-04-09 12:02:00,
2013-04-09 06:12:00,61.0,27.0,29.56,WSW,250,16.0,31.0,27,-99.99,,,-99.99,0.000000,,2013-04-09 12:12:00,
2013-04-09 06:22:00,61.0,27.0,29.56,WSW,250,16.0,31.0,27,-99.99,,,-99.99,0.000000,,2013-04-09 12:22:00,
2013-04-09 06:32:00,60.0,29.0,29.57,WSW,242,14.0,27.0,30,-99.99,,,-99.99,0.000000,,2013-04-09 12:32:00,
2013-04-09 06:42:00,59.0,29.0,29.58,WSW,249,17.0,33.0,32,-99.99,,,-99.99,0.000000,,2013-04-09 12:42:00,
2013-04-09 06:53:00,59.0,29.0,29.58,WSW,249,17.0,33.0,32,-99.99,,,-99.99,0.000000,,2013-04-09 12:53:00,
2013-04-09 07:00:00,51.0,35.0,29.64,NW,305,20.0,29.0,54,-99.99,,,-99.99,14.640000,,2013-04-09 13:00:00,
2013-04-09 07:02:00,57.0,32.0,29.61,WNW,288,17.0,34.0,38,-99.99,,,-99.99,0.000000,,2013-04-09 13:02:00,
2013-04-09 07:12:00,52.0,35.0,29.62,NW,304,22.0,35.0,52,-99.99,,,-99.99,1.390000,,2013-04-09 13:12:00,
2013-04-09 07:23:00,52.0,35.0,29.62,NW,304,22.0,35.0,52,-99.99,,,-99.99,1.390000,,2013-04-09 13:23:00,
2013-04-09 07:32:00,51.0,35.0,29.64,NW,305,20.0,29.0,54,-99.99,,,-99.99,14.640000,,2013-04-09 13:32:00,
2013-04-09 07:42:00,51.0,35.0,29.64,NW,305,20.0,29.0,54,-99.99,,,-99.99,14.640000,,2013-04-09 13:42:00,
2013-04-09 07:53:00,51.0,35.0,29.64,NW,305,20.0,29.0,54,-99.99,,,-99.99,14.640000,,2013-04-09 13:53:00,
2013-04-09 08:30:00,53.0,32.0,29.66,West,271,17.0,31.0,45,-99.99,,,-99.99,32.080002,,2013-04-09 14:30:00,
2013-04-09 08:42:00,53.0,33.0,29.66,WSW,257,19.0,36.0,45,-99.99,,,-99.99,35.560001,,2013-04-09 14:42:00,
2013-04-09 08:52:00,53.0,33.0,29.66,WSW,257,19.0,36.0,45,-99.99,,,-99.99,35.560001,,2013-04-09 14:52:00,
2013-04-09 09:02:00,53.0,32.0,29.66,West,271,17.0,31.0,45,-99.99,,,-99.99,32.080002,,2013-04-09 15:02:00,
2013-04-09 09:12:00,53.0,32.0,29.66,West,271,17.0,31.0,45,-99.99,,,-99.99,32.080002,,2013-04-09 15:12:00,
2013-04-09 09:22:00,53.0,32.0,29.66,West,271,17.0,31.0,45,-99.99,,,-99.99,32.080002,,2013-04-09 15:22:00,
2013-04-09 10:13:00,53.0,30.0,29.69,WSW,247,13.0,20.0,39,-99.99,,,-99.99,190.369995,,2013-04-09 16:13:00,
2013-04-09 10:23:00,53.0,30.0,29.69,WSW,247,13.0,20.0,39,-99.99,,,-99.99,190.369995,,2013-04-09 16:23:00,
2013-04-09 10:33:00,53.0,28.0,29.70,WSW,241,17.0,32.0,37,-99.99,,,-99.99,158.990005,,2013-04-09 16:33:00,
2013-04-09 10:42:00,53.0,28.0,29.71,WSW,238,19.0,30.0,38,-99.99,,,-99.99,172.940002,,2013-04-09 16:42:00,
2013-04-09 10:54:00,53.0,28.0,29.71,WSW,238,19.0,30.0,38,-99.99,,,-99.99,172.940002,,2013-04-09 16:54:00,
2013-04-09 11:02:00,53.0,28.0,29.71,WSW,238,19.0,30.0,38,-99.99,,,-99.99,172.940002,,2013-04-09 17:02:00,
2013-04-09 11:12:00,55.0,28.0,29.70,WSW,250,15.0,24.0,35,-99.99,,,-99.99,435.140015,,2013-04-09 17:12:00,
2013-04-09 11:23:00,55.0,28.0,29.70,WSW,250,15.0,24.0,35,-99.99,,,-99.99,435.140015,,2013-04-09 17:23:00,
2013-04-09 11:32:00,54.0,28.0,29.71,WSW,239,14.0,27.0,35,-99.99,,,-99.99,341.690002,,2013-04-09 17:32:00,
2013-04-09 11:42:00,55.0,28.0,29.71,WSW,238,14.0,24.0,35,-99.99,,,-99.99,247.550003,,2013-04-09 17:42:00,
2013-04-09 11:54:00,55.0,28.0,29.71,WSW,238,14.0,24.0,35,-99.99,,,-99.99,247.550003,,2013-04-09 17:54:00,
2013-04-09 12:02:00,55.0,28.0,29.71,WSW,238,14.0,24.0,35,-99.99,,,-99.99,247.550003,,2013-04-09 18:02:00,
2013-04-09 12:12:00,55.0,28.0,29.71,WSW,238,14.0,24.0,35,-99.99,,,-99.99,247.550003,,2013-04-09 18:12:00,
2013-04-09 12:43:00,56.0,28.0,29.70,SW,231,12.0,19.0,33,-99.99,,,-99.99,647.820007,,2013-04-09 18:43:00,
2013-04-09 12:53:00,56.0,28.0,29.70,SW,231,12.0,19.0,33,-99.99,,,-99.99,647.820007,,2013-04-09 18:53:00,
2013-04-09 13:03:00,56.0,28.0,29.70,SW,231,12.0,19.0,33,-99.99,,,-99.99,647.820007,,2013-04-09 19:03:00,
2013-04-09 13:12:00,56.0,28.0,29.70,SW,231,12.0,19.0,33,-99.99,,,-99.99,647.820007,,2013-04-09 19:12:00,
2013-04-09 13:53:00,58.0,24.0,29.69,WSW,251,13.0,33.0,26,-99.99,,,-99.99,271.260010,,2013-04-09 19:53:00,
2013-04-09 14:02:00,58.0,24.0,29.69,WSW,251,13.0,33.0,26,-99.99,,,-99.99,271.260010,,2013-04-09 20:02:00,
2013-04-09 14:12:00,59.0,20.0,29.68,WSW,255,10.0,19.0,21,-99.99,,,-99.99,329.839996,,2013-04-09 20:12:00,
2013-04-09 14:22:00,59.0,20.0,29.68,WSW,255,10.0,19.0,21,-99.99,,,-99.99,329.839996,,2013-04-09 20:22:00,
2013-04-09 14:33:00,59.0,20.0,29.68,WSW,255,10.0,19.0,21,-99.99,,,-99.99,329.839996,,2013-04-09 20:33:00,
2013-04-09 14:43:00,60.0,20.0,29.67,West,278,9.0,22.0,21,-99.99,,,-99.99,278.239990,,2013-04-09 20:43:00,
2013-04-09 14:53:00,60.0,20.0,29.67,West,278,9.0,22.0,21,-99.99,,,-99.99,278.239990,,2013-04-09 20:53:00,
2013-04-09 15:02:00,60.0,21.0,29.67,West,280,7.0,14.0,21,-99.99,,,-99.99,259.410004,,2013-04-09 21:02:00,
2013-04-09 15:13:00,60.0,21.0,29.67,West,280,7.0,14.0,21,-99.99,,,-99.99,259.410004,,2013-04-09 21:13:00,
2013-04-09 15:22:00,60.0,21.0,29.67,West,280,7.0,14.0,21,-99.99,,,-99.99,259.410004,,2013-04-09 21:22:00,
2013-04-09 15:33:00,60.0,20.0,29.68,West,267,5.0,14.0,20,-99.99,,,-99.99,190.369995,,2013-04-09 21:33:00,
2013-04-09 15:42:00,60.0,20.0,29.68,West,267,5.0,14.0,20,-99.99,,,-99.99,190.369995,,2013-04-09 21:42:00,
2013-04-09 15:53:00,61.0,20.0,29.68,WSW,253,14.0,28.0,20,-99.99,,,-99.99,364.010010,,2013-04-09 21:53:00,
2013-04-09 16:03:00,61.0,20.0,29.67,West,271,8.0,20.0,19,-99.99,,,-99.99,286.600006,,2013-04-09 22:03:00,
2013-04-09 16:13:00,61.0,18.0,29.67,WNW,283,9.0,27.0,19,-99.99,,,-99.99,159.690002,,2013-04-09 22:13:00,
2013-04-09 16:23:00,61.0,18.0,29.67,WNW,283,9.0,27.0,19,-99.99,,,-99.99,159.690002,,2013-04-09 22:23:00,
2013-04-09 16:33:00,61.0,18.0,29.67,WNW,283,9.0,27.0,19,-99.99,,,-99.99,159.690002,,2013-04-09 22:33:00,
2013-04-09 16:42:00,62.0,18.0,29.67,WNW,282,16.0,28.0,17,-99.99,,,-99.99,156.199997,,2013-04-09 22:42:00,
2013-04-09 16:53:00,62.0,18.0,29.67,WNW,282,16.0,28.0,17,-99.99,,,-99.99,156.199997,,2013-04-09 22:53:00,
2013-04-09 17:03:00,62.0,18.0,29.68,West,271,16.0,32.0,18,-99.99,,,-99.99,245.460007,,2013-04-09 23:03:00,
2013-04-09 17:12:00,61.0,18.0,29.67,WNW,291,18.0,42.0,18,-99.99,,,-99.99,271.260010,,2013-04-09 23:12:00,
2013-04-09 17:22:00,61.0,18.0,29.67,WNW,291,18.0,42.0,18,-99.99,,,-99.99,271.260010,,2013-04-09 23:22:00,
2013-04-09 17:32:00,61.0,17.0,29.68,WNW,286,19.0,32.0,17,-99.99,,,-99.99,122.029999,,2013-04-09 23:32:00,
2013-04-09 17:42:00,61.0,19.0,29.68,WNW,286,20.0,32.0,19,-99.99,,,-99.99,191.770004,,2013-04-09 23:42:00,
2013-04-09 17:53:00,61.0,19.0,29.68,WNW,286,20.0,32.0,19,-99.99,,,-99.99,191.770004,,2013-04-09 23:53:00,
2013-04-09 18:03:00,61.0,17.0,29.68,WNW,286,19.0,29.0,18,-99.99,,,-99.99,192.460007,,2013-04-10 00:03:00,
2013-04-09 18:12:00,61.0,17.0,29.68,WNW,286,19.0,29.0,18,-99.99,,,-99.99,192.460007,,2013-04-10 00:12:00,
2013-04-09 18:23:00,61.0,17.0,29.68,WNW,286,19.0,29.0,18,-99.99,,,-99.99,192.460007,,2013-04-10 00:23:00,
2013-04-09 18:32:00,60.0,19.0,29.70,WNW,287,18.0,31.0,20,-99.99,,,-99.99,48.119999,,2013-04-10 00:32:00,
2013-04-09 18:43:00,59.0,20.0,29.71,WNW,286,16.0,31.0,21,-99.99,,,-99.99,34.869999,,2013-04-10 00:43:00,
2013-04-09 18:53:00,59.0,20.0,29.71,WNW,286,16.0,31.0,21,-99.99,,,-99.99,34.869999,,2013-04-10 00:53:00,
2013-04-09 19:02:00,59.0,22.0,29.72,NW,304,14.0,21.0,24,-99.99,,,-99.99,36.259998,,2013-04-10 01:02:00,
2013-04-09 19:12:00,58.0,23.0,29.73,WNW,299,16.0,28.0,25,-99.99,,,-99.99,21.620001,,2013-04-10 01:12:00,
2013-04-09 19:23:00,58.0,23.0,29.73,WNW,299,16.0,28.0,25,-99.99,,,-99.99,21.620001,,2013-04-10 01:23:00,
2013-04-09 19:32:00,58.0,22.0,29.73,WNW,298,15.0,23.0,24,-99.99,,,-99.99,25.100000,,2013-04-10 01:32:00,
2013-04-09 19:42:00,58.0,21.0,29.72,WNW,288,15.0,23.0,24,-99.99,,,-99.99,25.100000,,2013-04-10 01:42:00,
2013-04-09 19:53:00,58.0,21.0,29.72,WNW,288,15.0,23.0,24,-99.99,,,-99.99,25.100000,,2013-04-10 01:53:00,
2013-04-09 20:02:00,58.0,22.0,29.74,WNW,282,12.0,21.0,24,-99.99,,,-99.99,12.550000,,2013-04-10 02:02:00,
2013-04-09 20:12:00,58.0,22.0,29.75,West,275,13.0,22.0,24,-99.99,,,-99.99,0.700000,,2013-04-10 02:12:00,
2013-04-09 20:22:00,58.0,22.0,29.75,West,275,13.0,22.0,24,-99.99,,,-99.99,0.700000,,2013-04-10 02:22:00,
2013-04-09 20:32:00,58.0,22.0,29.75,WNW,283,11.0,16.0,24,-99.99,,,-99.99,0.000000,,2013-04-10 02:32:00,
2013-04-09 20:43:00,58.0,21.0,29.77,West,275,13.0,21.0,23,-99.99,,,-99.99,0.000000,,2013-04-10 02:43:00,
2013-04-09 20:53:00,58.0,21.0,29.77,West,275,13.0,21.0,23,-99.99,,,-99.99,0.000000,,2013-04-10 02:53:00,
2013-04-09 21:02:00,57.0,22.0,29.76,WNW,303,16.0,25.0,25,-99.99,,,-99.99,0.000000,,2013-04-10 03:02:00,
2013-04-09 21:12:00,56.0,24.0,29.78,WNW,299,16.0,23.0,28,-99.99,,,-99.99,0.000000,,2013-04-10 03:12:00,
2013-04-09 21:22:00,56.0,24.0,29.78,WNW,299,16.0,23.0,28,-99.99,,,-99.99,0.000000,,2013-04-10 03:22:00,
2013-04-09 21:33:00,55.0,24.0,29.77,WNW,302,16.0,23.0,28,-99.99,,,-99.99,0.000000,,2013-04-10 03:33:00,
2013-04-09 21:43:00,55.0,23.0,29.80,WNW,293,14.0,22.0,28,-99.99,,,-99.99,0.000000,,2013-04-10 03:43:00,
2013-04-09 21:53:00,55.0,23.0,29.80,WNW,293,14.0,22.0,28,-99.99,,,-99.99,0.000000,,2013-04-10 03:53:00,
2013-04-09 22:03:00,55.0,23.0,29.80,WNW,293,14.0,22.0,28,-99.99,,,-99.99,0.000000,,2013-04-10 04:03:00,
2013-04-09 22:13:00,54.0,24.0,29.81,WNW,292,12.0,22.0,30,-99.99,,,-99.99,0.000000,,2013-04-10 04:13:00,
2013-04-09 22:23:00,54.0,24.0,29.81,WNW,292,12.0,22.0,30,-99.99,,,-99.99,0.000000,,2013-04-10 04:23:00,
2013-04-09 22:33:00,54.0,23.0,29.83,West,279,13.0,20.0,28,-99.99,,,-99.99,0.000000,,2013-04-10 04:33:00,
2013-04-09 22:42:00,54.0,22.0,29.81,WNW,284,13.0,19.0,28,-99.99,,,-99.99,0.000000,,2013-04-10 04:42:00,
2013-04-09 22:53:00,54.0,22.0,29.81,WNW,284,13.0,19.0,28,-99.99,,,-99.99,0.000000,,2013-04-10 04:53:00,
2013-04-09 23:02:00,53.0,22.0,29.81,WNW,300,9.0,14.0,28,-99.99,,,-99.99,0.000000,,2013-04-10 05:02:00,
2013-04-09 23:13:00,53.0,23.0,29.82,West,269,11.0,17.0,30,-99.99,,,-99.99,0.000000,,2013-04-10 05:13:00,
2013-04-09 23:23:00,53.0,23.0,29.82,West,269,11.0,17.0,30,-99.99,,,-99.99,0.000000,,2013-04-10 05:23:00,
2013-04-09 23:33:00,53.0,23.0,29.81,West,272,14.0,20.0,31,-99.99,,,-99.99,0.000000,,2013-04-10 05:33:00,
2013-04-09 23:42:00,53.0,24.0,29.82,WNW,295,9.0,15.0,32,-99.99,,,-99.99,0.000000,,2013-04-10 05:42:00,
2013-04-09 23:53:00,53.0,24.0,29.82,WNW,295,9.0,15.0,32,-99.99,,,-99.99,0.000000,,2013-04-10 05:53:00,